Location: Artiguedieu
(43.5000°N, 0.5454°E)
Time: 01:22:04
(UTC+00:00)

Transit 2A Rocket - Pass Details

Date: 04 August 2021
Orbit: 586 x 916 km, 66.7° (Epoch: 16 September)

Event Time Altitude Azimuth Distance (km) Brightness Sun altitude
Rises 11:42:15 0° 155° (SSE) 2,831 8.3 63.2°
Reaches altitude 10° 11:46:06 10° 119° (ESE) 1,983 7.6 63.3°
Maximum altitude 11:47:21 11° 103° (ESE) 1,934 7.4 63.4°
Drops below altitude 10° 11:48:37 10° 86° (E) 2,028 7.4 63.4°
Sets 11:52:43 0° 52° (NE) 3,027 8.0 63.5°
